Weather in Shar

Kazakhstan     49˚35′05″N   81˚02′49″E
temp.,
°C
wind,
m/s
gust,
m/s
humid.,
%
clouds,
%
prec.,
mm/h
press.,
hPa
HPBL,
m
3 december, thu
thu300:00−21˚nne01890 0.0 104420
03:00−21˚nne11850 0.0 104320
06:00−21˚ne11810 0.0 104220
09:00−20˚ne01770 0.0 104120
12:00−15˚ene11690 0.0 104044
15:00−14˚ne22700 0.0 103820
18:00−16˚e12640 0.0 103820
21:00−16˚se22650 0.0 103820
4 december, fri
fri400:00−15˚se33720 0.0 103720
03:00−15˚se34720 0.0 103520
06:00−15˚se33730 0.0 103521
09:00−15˚se33730 0.0 103420
12:00−11˚se36790 0.0 1033202
15:00−9˚se368528 0.0 1033187
18:00−9˚se489564 0.3 1033266
21:00−9˚ese479599 0.4 1033212
5 december, sat
sat500:00−10˚se3595100 0.6 1034121
03:00−10˚se359598 0.3 1035130
06:00−11˚se229596 0.3 103521
09:00−12˚wsw119596 0.1 103620
12:00−11˚nw119391 0.1 103655
15:00−11˚n229553 0.0 103723
18:00−14˚nnw129348 0.0 103820
21:00−15˚nnw119270 0.0 103920
6 december, sun
sun600:00−16˚nnw119154 0.0 104020
03:00−17˚nnw11900 0.0 104120
06:00−18˚nw11870 0.0 104120
09:00−18˚nnw11850 0.0 104220
12:00−14˚ese00800 0.0 104247
15:00−15˚nne11840 0.0 104220
18:00−18˚ene11870 0.0 104220
21:00−18˚ese11882 0.0 104220
7 december, mon
mon700:00−18˚ese118623 0.0 104120
03:00−18˚ese118457 0.0 104020
06:00−18˚ese127954 0.0 103920
09:00−18˚se12735 0.0 103920
12:00−14˚ese22793 0.0 103668
15:00−12˚ene227653 0.0 103420
18:00−14˚ese127270 0.0 103420
21:00−14˚se127239 0.0 103420